When you browse on this site, cookies collect data to enhance your experience and personalize the content and advertising you see.
Visit our Privacy Policy to learn more. By continuing to use the site, you agree to this use of cookies and data.
  • In Switzerland
  • List of Countries
  • For 7 days
  • Water Temperature
  • Satellite Maps
  • Weather Map
  • Weather Widgets
  • user-avatar
    Login

    Hourly Weather Sherpur

    Today, 17 July, Wednesday

    Time Temperature Precipitation Wind Pressure Humidity
    00:00 +23°C° 0 mm 1 mps 608 mmHg 58%
    01:00 +22°C° 0 mm 1 mps 607 mmHg 61%
    02:00 +21°C° 0 mm 1 mps 607 mmHg 64%
    03:00 +21°C° 0 mm 1 mps 607 mmHg 65%
    04:00 +20°C° 0 mm 1 mps 607 mmHg 65%
    05:00 +20°C° 0 mm 1 mps 606 mmHg 66%
    06:00 +22°C° 0 mm 1 mps 607 mmHg 55%
    07:00 +22°C° 0 mm 0 mps 608 mmHg 44%
    08:00 +24°C° 0 mm 0 mps 609 mmHg 32%
    09:00 +28°C° 0 mm 1 mps 610 mmHg 26%
    10:00 +30°C° 0 mm 1 mps 610 mmHg 20%
    11:00 +31°C° 0 mm 1 mps 611 mmHg 14%
    12:00 +32°C° 0 mm 1 mps 611 mmHg 13%
    13:00 +35°C° 0 mm 2 mps 611 mmHg 11%
    14:00 +36°C° 0 mm 2 mps 610 mmHg 10%
    15:00 +36°C° 0 mm 3 mps 610 mmHg 10%
    16:00 +36°C° 0 mm 3 mps 610 mmHg 10%
    17:00 +36°C° 0 mm 4 mps 610 mmHg 10%
    18:00 +34°C° 0 mm 4 mps 610 mmHg 17%
    19:00 +32°C° 0 mm 4 mps 609 mmHg 24%
    20:00 +28°C° 0 mm 4 mps 609 mmHg 31%
    21:00 +27°C° 0 mm 3 mps 608 mmHg 38%
    22:00 +25°C° 0 mm 2 mps 608 mmHg 44%
    23:00 +24°C° 0 mm 1 mps 608 mmHg 51%

    Tomorrow, 18 July, Thursday

    Time Temperature Precipitation Wind Pressure Humidity
    00:00 +23°C° 0 mm 1 mps 608 mmHg 54%
    01:00 +22°C° 0 mm 1 mps 607 mmHg 58%
    02:00 +22°C° 0 mm 1 mps 607 mmHg 61%
    03:00 +21°C° 0 mm 1 mps 606 mmHg 63%
    04:00 +20°C° 0 mm 1 mps 606 mmHg 64%
    05:00 +18°C° 0 mm 0 mps 606 mmHg 65%
    06:00 +20°C° 0 mm 0 mps 607 mmHg 54%
    07:00 +22°C° 0 mm 0 mps 608 mmHg 43%
    08:00 +24°C° 0 mm 0 mps 609 mmHg 32%
    09:00 +28°C° 0 mm 1 mps 610 mmHg 26%
    10:00 +30°C° 0 mm 1 mps 610 mmHg 19%
    11:00 +32°C° 0 mm 1 mps 611 mmHg 13%
    12:00 +34°C° 0 mm 2 mps 611 mmHg 12%
    13:00 +35°C° 0 mm 2 mps 611 mmHg 11%
    14:00 +36°C° 0 mm 2 mps 611 mmHg 10%
    15:00 +36°C° 0 mm 3 mps 611 mmHg 10%
    16:00 +37°C° 0 mm 3 mps 610 mmHg 9%
    17:00 +37°C° 0 mm 4 mps 610 mmHg 9%
    18:00 +35°C° 0 mm 4 mps 610 mmHg 16%
    19:00 +31°C° 0 mm 3 mps 609 mmHg 23%
    20:00 +29°C° 0 mm 3 mps 609 mmHg 29%
    21:00 +28°C° 0 mm 2 mps 609 mmHg 34%
    22:00 +26°C° 0 mm 2 mps 609 mmHg 39%
    23:00 +25°C° 0 mm 2 mps 608 mmHg 44%

    Day after tomorrow, 19 July, Friday

    Time Temperature Precipitation Wind Pressure Humidity
    00:00 +24°C° 0 mm 1 mps 608 mmHg 48%
    01:00 +23°C° 0 mm 1 mps 607 mmHg 53%
    02:00 +22°C° 0 mm 1 mps 607 mmHg 57%
    03:00 +22°C° 0 mm 1 mps 607 mmHg 60%
    04:00 +19°C° 0 mm 0 mps 607 mmHg 62%
    05:00 +19°C° 0 mm 0 mps 607 mmHg 64%
    06:00 +21°C° 0 mm 0 mps 608 mmHg 55%
    07:00 +23°C° 0 mm 0 mps 609 mmHg 45%
    08:00 +25°C° 0 mm 0 mps 609 mmHg 36%
    09:00 +29°C° 0 mm 1 mps 610 mmHg 29%
    10:00 +31°C° 0 mm 1 mps 611 mmHg 22%
    11:00 +33°C° 0 mm 1 mps 611 mmHg 14%
    12:00 +35°C° 0 mm 2 mps 611 mmHg 13%
    13:00 +36°C° 0 mm 2 mps 611 mmHg 12%
    14:00 +37°C° 0 mm 2 mps 611 mmHg 10%
    15:00 +37°C° 0 mm 3 mps 611 mmHg 10%
    16:00 +37°C° 0 mm 3 mps 611 mmHg 10%
    17:00 +37°C° 0 mm 4 mps 611 mmHg 10%
    18:00 +35°C° 0 mm 4 mps 611 mmHg 15%
    19:00 +33°C° 0 mm 3 mps 610 mmHg 19%
    20:00 +30°C° 0 mm 3 mps 610 mmHg 24%
    21:00 +28°C° 0 mm 3 mps 609 mmHg 32%
    22:00 +27°C° 0 mm 2 mps 609 mmHg 41%
    23:00 +25°C° 0 mm 1 mps 609 mmHg 49%

    20 July, Saturday

    Time Temperature Precipitation Wind Pressure Humidity
    00:00 +25°C° 0 mm 1 mps 609 mmHg 53%
    01:00 +24°C° 0 mm 1 mps 608 mmHg 57%
    02:00 +23°C° 0 mm 1 mps 608 mmHg 60%
    03:00 +22°C° 0 mm 1 mps 608 mmHg 62%
    04:00 +22°C° 0 mm 1 mps 607 mmHg 64%
    05:00 +19°C° 0 mm 0 mps 607 mmHg 66%
    06:00 +21°C° 0 mm 0 mps 608 mmHg 56%
    07:00 +26°C° 0 mm 1 mps 609 mmHg 45%
    08:00 +28°C° 0 mm 1 mps 610 mmHg 35%
    09:00 +30°C° 0 mm 1 mps 611 mmHg 28%
    10:00 +32°C° 0 mm 1 mps 611 mmHg 20%
    11:00 +35°C° 0 mm 2 mps 612 mmHg 13%
    12:00 +36°C° 0 mm 2 mps 612 mmHg 11%
    13:00 +37°C° 0 mm 3 mps 612 mmHg 9%
    14:00 +38°C° 0 mm 4 mps 612 mmHg 8%
    15:00 +39°C° 0 mm 5 mps 612 mmHg 8%
    16:00 +39°C° 0 mm 6 mps 612 mmHg 8%
    17:00 +39°C° 0 mm 7 mps 612 mmHg 8%
    18:00 +36°C° 0 mm 6 mps 611 mmHg 11%
    19:00 +33°C° 0 mm 5 mps 611 mmHg 14%
    20:00 +30°C° 0 mm 4 mps 610 mmHg 17%
    21:00 +28°C° 0 mm 3 mps 610 mmHg 22%
    22:00 +27°C° 0 mm 2 mps 609 mmHg 27%
    23:00 +25°C° 0 mm 2 mps 609 mmHg 33%

    21 July, Sunday

    Time Temperature Precipitation Wind Pressure Humidity
    00:00 +25°C° 0 mm 2 mps 609 mmHg 31%
    01:00 +24°C° 0 mm 1 mps 608 mmHg 29%
    02:00 +23°C° 0 mm 1 mps 608 mmHg 28%
    03:00 +23°C° 0 mm 1 mps 607 mmHg 27%
    04:00 +22°C° 0 mm 1 mps 607 mmHg 27%
    05:00 +22°C° 0 mm 1 mps 607 mmHg 26%
    06:00 +24°C° 0 mm 1 mps 608 mmHg 23%
    07:00 +26°C° 0 mm 1 mps 609 mmHg 19%
    08:00 +29°C° 0 mm 1 mps 610 mmHg 16%
    09:00 +31°C° 0 mm 1 mps 610 mmHg 14%
    10:00 +32°C° 0 mm 2 mps 611 mmHg 12%
    11:00 +35°C° 0 mm 2 mps 611 mmHg 10%
    12:00 +36°C° 0 mm 3 mps 611 mmHg 10%
    13:00 +39°C° 0 mm 5 mps 611 mmHg 9%
    14:00 +40°C° 0 mm 6 mps 611 mmHg 8%
    15:00 +39°C° 0 mm 6 mps 611 mmHg 8%
    16:00 +39°C° 0 mm 7 mps 611 mmHg 9%
    17:00 +39°C° 0 mm 8 mps 610 mmHg 9%
    18:00 +35°C° 0 mm 6 mps 610 mmHg 10%
    19:00 +33°C° 0 mm 5 mps 609 mmHg 12%
    20:00 +29°C° 0 mm 4 mps 609 mmHg 13%
    21:00 +28°C° 0 mm 3 mps 608 mmHg 14%
    22:00 +27°C° 0 mm 3 mps 608 mmHg 16%
    23:00 +25°C° 0 mm 2 mps 608 mmHg 17%

    22 July, Monday

    Time Temperature Precipitation Wind Pressure Humidity
    00:00 +25°C° 0 mm 2 mps 608 mmHg 18%
    01:00 +24°C° 0 mm 2 mps 607 mmHg 19%
    02:00 +23°C° 0 mm 2 mps 607 mmHg 20%
    03:00 +23°C° 0 mm 2 mps 606 mmHg 20%
    04:00 +21°C° 0 mm 2 mps 606 mmHg 21%
    05:00 +21°C° 0 mm 2 mps 606 mmHg 22%
    06:00 +24°C° 0 mm 2 mps 607 mmHg 19%
    07:00 +27°C° 0 mm 2 mps 608 mmHg 17%
    08:00 +29°C° 0 mm 2 mps 609 mmHg 15%
    09:00 +31°C° 0 mm 3 mps 610 mmHg 13%
    10:00 +34°C° 0 mm 3 mps 610 mmHg 12%
    11:00 +35°C° 0 mm 4 mps 611 mmHg 10%
    12:00 +36°C° 0 mm 5 mps 611 mmHg 10%
    13:00 +38°C° 0 mm 6 mps 611 mmHg 10%
    14:00 +39°C° 0 mm 7 mps 610 mmHg 9%
    15:00 +38°C° 0 mm 7 mps 610 mmHg 10%
    16:00 +38°C° 0 mm 8 mps 610 mmHg 11%
    17:00 +37°C° 0 mm 8 mps 609 mmHg 12%
    18:00 +34°C° 0 mm 6 mps 609 mmHg 15%
    19:00 +32°C° 0 mm 5 mps 608 mmHg 18%
    20:00 +28°C° 0 mm 4 mps 607 mmHg 22%
    21:00 +27°C° 0 mm 3 mps 607 mmHg 24%
    22:00 +26°C° 0 mm 2 mps 607 mmHg 27%
    23:00 +24°C° 0 mm 2 mps 607 mmHg 30%
    Show more